﻿_id,UTC_DateTime,UTC_Time,PG,PG_mean,unit,site,lat,lon,alt
1,2012-01-25T00:00:00,00:00:00,,,"","",,,
2,2012-01-25T01:00:00,01:00:00,,,"","",,,
3,2012-01-25T02:00:00,02:00:00,,,"","",,,
4,2012-01-25T03:00:00,03:00:00,,,"","",,,
5,2012-01-25T04:00:00,04:00:00,,,"","",,,
6,2012-01-25T05:00:00,05:00:00,,,"","",,,
7,2012-01-25T06:00:00,06:00:00,,,"","",,,
8,2012-01-25T07:00:00,07:00:00,,,"","",,,
9,2012-01-25T08:00:00,08:00:00,,,"","",,,
10,2012-01-25T09:00:00,09:00:00,,,"","",,,
11,2012-01-25T10:00:00,10:00:00,,,"","",,,
12,2012-01-25T11:00:00,11:00:00,,,"","",,,
13,2012-01-25T12:00:00,12:00:00,,,"","",,,
14,2012-01-25T13:00:00,13:00:00,,,"","",,,
15,2012-01-25T14:00:00,14:00:00,,,"","",,,
16,2012-01-25T15:00:00,15:00:00,,,"","",,,
17,2012-01-25T16:00:00,16:00:00,,,"","",,,
18,2012-01-25T17:00:00,17:00:00,,,"","",,,
19,2012-01-25T18:00:00,18:00:00,,,"","",,,
20,2012-01-25T19:00:00,19:00:00,,,"","",,,
21,2012-01-25T20:00:00,20:00:00,,,"","",,,
22,2012-01-25T21:00:00,21:00:00,,,"","",,,
23,2012-01-25T22:00:00,22:00:00,,,"","",,,
24,2012-01-25T23:00:00,23:00:00,,,"","",,,
25,2012-01-26T00:00:00,00:00:00,,,"","",,,
26,2012-01-26T01:00:00,01:00:00,,,"","",,,
27,2012-01-26T02:00:00,02:00:00,,,"","",,,
28,2012-01-26T03:00:00,03:00:00,,,"","",,,
29,2012-01-26T04:00:00,04:00:00,,,"","",,,
30,2012-01-26T05:00:00,05:00:00,,,"","",,,
31,2012-01-26T06:00:00,06:00:00,,,"","",,,
32,2012-01-26T07:00:00,07:00:00,,,"","",,,
33,2012-01-26T08:00:00,08:00:00,,,"","",,,
34,2012-01-26T09:00:00,09:00:00,,,"","",,,
35,2012-01-26T10:00:00,10:00:00,,,"","",,,
36,2012-01-26T11:00:00,11:00:00,,,"","",,,
37,2012-01-26T12:00:00,12:00:00,223,330,V/m,SWI,52.116,21.237,100
38,2012-01-26T13:00:00,13:00:00,237,351,V/m,SWI,52.116,21.237,100
39,2012-01-26T14:00:00,14:00:00,273,380,V/m,SWI,52.116,21.237,100
40,2012-01-26T15:00:00,15:00:00,300,413,V/m,SWI,52.116,21.237,100
41,2012-01-26T16:00:00,16:00:00,322,470,V/m,SWI,52.116,21.237,100
42,2012-01-26T17:00:00,17:00:00,359,490,V/m,SWI,52.116,21.237,100
43,2012-01-26T18:00:00,18:00:00,360,499,V/m,SWI,52.116,21.237,100
44,2012-01-26T19:00:00,19:00:00,349,484,V/m,SWI,52.116,21.237,100
45,2012-01-26T20:00:00,20:00:00,348,466,V/m,SWI,52.116,21.237,100
46,2012-01-26T21:00:00,21:00:00,310,465,V/m,SWI,52.116,21.237,100
47,2012-01-26T22:00:00,22:00:00,325,433,V/m,SWI,52.116,21.237,100
48,2012-01-26T23:00:00,23:00:00,277,407,V/m,SWI,52.116,21.237,100
49,2012-01-27T00:00:00,00:00:00,241,323,V/m,SWI,52.116,21.237,100
50,2012-01-27T01:00:00,01:00:00,206,279,V/m,SWI,52.116,21.237,100
51,2012-01-27T02:00:00,02:00:00,209,257,V/m,SWI,52.116,21.237,100
52,2012-01-27T03:00:00,03:00:00,226,264,V/m,SWI,52.116,21.237,100
53,2012-01-27T04:00:00,04:00:00,229,258,V/m,SWI,52.116,21.237,100
54,2012-01-27T05:00:00,05:00:00,256,281,V/m,SWI,52.116,21.237,100
55,2012-01-27T06:00:00,06:00:00,251,289,V/m,SWI,52.116,21.237,100
56,2012-01-27T07:00:00,07:00:00,242,324,V/m,SWI,52.116,21.237,100
57,2012-01-27T08:00:00,08:00:00,239,329,V/m,SWI,52.116,21.237,100
58,2012-01-27T09:00:00,09:00:00,236,340,V/m,SWI,52.116,21.237,100
59,2012-01-27T10:00:00,10:00:00,244,334,V/m,SWI,52.116,21.237,100
60,2012-01-27T11:00:00,11:00:00,238,316,V/m,SWI,52.116,21.237,100
61,2012-01-27T12:00:00,12:00:00,236,330,V/m,SWI,52.116,21.237,100
62,2012-01-27T13:00:00,13:00:00,245,351,V/m,SWI,52.116,21.237,100
63,2012-01-27T14:00:00,14:00:00,285,380,V/m,SWI,52.116,21.237,100
64,2012-01-27T15:00:00,15:00:00,318,413,V/m,SWI,52.116,21.237,100
65,2012-01-27T16:00:00,16:00:00,352,470,V/m,SWI,52.116,21.237,100
66,2012-01-27T17:00:00,17:00:00,383,490,V/m,SWI,52.116,21.237,100
67,2012-01-27T18:00:00,18:00:00,408,499,V/m,SWI,52.116,21.237,100
68,2012-01-27T19:00:00,19:00:00,389,484,V/m,SWI,52.116,21.237,100
69,2012-01-27T20:00:00,20:00:00,388,466,V/m,SWI,52.116,21.237,100
70,2012-01-27T21:00:00,21:00:00,421,465,V/m,SWI,52.116,21.237,100
71,2012-01-27T22:00:00,22:00:00,385,433,V/m,SWI,52.116,21.237,100
72,2012-01-27T23:00:00,23:00:00,413,407,V/m,SWI,52.116,21.237,100
73,2012-01-28T00:00:00,00:00:00,286,323,V/m,SWI,52.116,21.237,100
74,2012-01-28T01:00:00,01:00:00,221,279,V/m,SWI,52.116,21.237,100
75,2012-01-28T02:00:00,02:00:00,204,257,V/m,SWI,52.116,21.237,100
76,2012-01-28T03:00:00,03:00:00,203,264,V/m,SWI,52.116,21.237,100
77,2012-01-28T04:00:00,04:00:00,205,258,V/m,SWI,52.116,21.237,100
78,2012-01-28T05:00:00,05:00:00,227,281,V/m,SWI,52.116,21.237,100
79,2012-01-28T06:00:00,06:00:00,254,289,V/m,SWI,52.116,21.237,100
80,2012-01-28T07:00:00,07:00:00,271,324,V/m,SWI,52.116,21.237,100
81,2012-01-28T08:00:00,08:00:00,267,329,V/m,SWI,52.116,21.237,100
82,2012-01-28T09:00:00,09:00:00,265,340,V/m,SWI,52.116,21.237,100
83,2012-01-28T10:00:00,10:00:00,277,334,V/m,SWI,52.116,21.237,100
84,2012-01-28T11:00:00,11:00:00,251,316,V/m,SWI,52.116,21.237,100
85,2012-01-28T12:00:00,12:00:00,261,330,V/m,SWI,52.116,21.237,100
86,2012-01-28T13:00:00,13:00:00,303,351,V/m,SWI,52.116,21.237,100
87,2012-01-28T14:00:00,14:00:00,311,380,V/m,SWI,52.116,21.237,100
88,2012-01-28T15:00:00,15:00:00,371,413,V/m,SWI,52.116,21.237,100
89,2012-01-28T16:00:00,16:00:00,414,470,V/m,SWI,52.116,21.237,100
90,2012-01-28T17:00:00,17:00:00,434,490,V/m,SWI,52.116,21.237,100
91,2012-01-28T18:00:00,18:00:00,392,499,V/m,SWI,52.116,21.237,100
92,2012-01-28T19:00:00,19:00:00,397,484,V/m,SWI,52.116,21.237,100
93,2012-01-28T20:00:00,20:00:00,426,466,V/m,SWI,52.116,21.237,100
94,2012-01-28T21:00:00,21:00:00,392,465,V/m,SWI,52.116,21.237,100
95,2012-01-28T22:00:00,22:00:00,358,433,V/m,SWI,52.116,21.237,100
96,2012-01-28T23:00:00,23:00:00,334,407,V/m,SWI,52.116,21.237,100
97,2012-01-29T00:00:00,00:00:00,321,323,V/m,SWI,52.116,21.237,100
98,2012-01-29T01:00:00,01:00:00,311,279,V/m,SWI,52.116,21.237,100
99,2012-01-29T02:00:00,02:00:00,311,257,V/m,SWI,52.116,21.237,100
100,2012-01-29T03:00:00,03:00:00,288,264,V/m,SWI,52.116,21.237,100
101,2012-01-29T04:00:00,04:00:00,301,258,V/m,SWI,52.116,21.237,100
102,2012-01-29T05:00:00,05:00:00,319,281,V/m,SWI,52.116,21.237,100
103,2012-01-29T06:00:00,06:00:00,351,289,V/m,SWI,52.116,21.237,100
104,2012-01-29T07:00:00,07:00:00,428,324,V/m,SWI,52.116,21.237,100
105,2012-01-29T08:00:00,08:00:00,429,329,V/m,SWI,52.116,21.237,100
106,2012-01-29T09:00:00,09:00:00,436,340,V/m,SWI,52.116,21.237,100
107,2012-01-29T10:00:00,10:00:00,434,334,V/m,SWI,52.116,21.237,100
108,2012-01-29T11:00:00,11:00:00,422,316,V/m,SWI,52.116,21.237,100
109,2012-01-29T12:00:00,12:00:00,456,330,V/m,SWI,52.116,21.237,100
110,2012-01-29T13:00:00,13:00:00,508,351,V/m,SWI,52.116,21.237,100
111,2012-01-29T14:00:00,14:00:00,586,380,V/m,SWI,52.116,21.237,100
112,2012-01-29T15:00:00,15:00:00,576,413,V/m,SWI,52.116,21.237,100
113,2012-01-29T16:00:00,16:00:00,663,470,V/m,SWI,52.116,21.237,100
114,2012-01-29T17:00:00,17:00:00,718,490,V/m,SWI,52.116,21.237,100
115,2012-01-29T18:00:00,18:00:00,736,499,V/m,SWI,52.116,21.237,100
116,2012-01-29T19:00:00,19:00:00,676,484,V/m,SWI,52.116,21.237,100
117,2012-01-29T20:00:00,20:00:00,668,466,V/m,SWI,52.116,21.237,100
118,2012-01-29T21:00:00,21:00:00,737,465,V/m,SWI,52.116,21.237,100
119,2012-01-29T22:00:00,22:00:00,841,433,V/m,SWI,52.116,21.237,100
120,2012-01-29T23:00:00,23:00:00,821,407,V/m,SWI,52.116,21.237,100
